軌道要素
Epoch 2024 Mar. 31.0 TT = JDT 2460400.5
T 2023 July 31.53980 TT Rudenko
q 1.4831274 (2000.0) P Q
z +0.0000391 Peri. 329.81845 +0.28274766 -0.90356736
+/-0.0000004 Node 257.88682 -0.80100291 -0.40704403
e 0.9999419 Incl. 160.77792 -0.52768181 +0.13372054
>From 1746 observations 2021 Aug. 7-2024 Mar. 18, mean residual 0".7.
|